Le nostre stazioni meteo in Italia

Pubblicità
Il mio iltempo24.it
Monte Terminillo, Italia (16219): Temperatura & dewpoint: 07.12.2018 22:00:00 - 13.12.2018 22:00:00 (CET)Monte Terminillo, Italia (16219): velocità del vento & gusts: 07.12.2018 22:00:00 - 13.12.2018 22:00:00 (CET)Monte Terminillo, Italia (16219): direzione del vento: 07.12.2018 22:00:00 - 13.12.2018 22:00:00 (CET)Monte Terminillo, Italia (16219): ore di luce: 07.12.2018 22:00:00 - 13.12.2018 22:00:00 (CET)
Data & Tempo tt [°C] td [°C] ff [km/h] ff [kn] fx [km/h] fx [kn] dd sd [min]
13.12.2018 22:00:00 -1,6 -1,6 4 2 - - N 0
13.12.2018 21:00:00 -1,6 -1,6 4 2 - - N 0
13.12.2018 20:00:00 -1,6 -1,6 4 2 - - N 0
13.12.2018 19:00:00 -1,4 -1,4 8 4 - - N 0
13.12.2018 18:00:00 -1,4 -1,4 4 2 - - N 0
13.12.2018 17:00:00 -1,5 -1,5 4 2 - - N 0
13.12.2018 16:00:00 -1,4 -1,4 4 2 - - N 0
13.12.2018 15:00:00 -1,1 -1,1 4 2 - - N 0
13.12.2018 14:00:00 -1,3 -1,3 4 2 - - N 0
13.12.2018 13:00:00 -1,9 -1,9 5 3 - - N 0
13.12.2018 12:00:00 -2,4 -2,4 4 2 - - N 0
13.12.2018 11:00:00 -3,0 -3,0 4 2 - - N 0
13.12.2018 10:00:00 -3,4 -3,5 4 2 - - N 0
13.12.2018 09:00:00 -3,6 -3,6 4 2 - - N 0
13.12.2018 08:00:00 -3,5 -3,7 4 2 - - N 0
13.12.2018 07:00:00 -3,4 -3,4 5 3 - - N 0
13.12.2018 06:00:00 -5,4 -5,8 4 2 - - N 0
13.12.2018 05:00:00 -5,6 -6,0 4 2 32 17 N 0
13.12.2018 04:00:00 -5,4 -5,8 21 11 - - SE 0
13.12.2018 03:00:00 -5,8 -6,3 26 14 - - ESE 0
13.12.2018 02:00:00 -6,7 -7,4 28 15 - - ESE 0
13.12.2018 01:00:00 -5,5 -8,9 29 16 - - ESE 0
13.12.2018 00:00:00 -5,1 -11,9 29 16 - - E 0
12.12.2018 23:00:00 -4,9 -10,7 13 7 - - E 0
12.12.2018 22:00:00 -3,4 -16,8 11 6 - - SE 0
12.12.2018 21:00:00 -4,2 -15,9 22 12 - - ESE 0
12.12.2018 20:00:00 -4,4 -15,5 4 2 - - N 0
12.12.2018 19:00:00 -4,7 -12,8 9 5 - - ESE 0
12.12.2018 18:00:00 -4,5 -12,2 9 5 - - SE 0
12.12.2018 17:00:00 -3,3 -14,0 11 6 - - ESE 0
12.12.2018 16:00:00 -1,0 -16,6 11 6 - - ESE 8
12.12.2018 15:00:00 -0,7 -22,4 4 2 - - N 58
12.12.2018 14:00:00 -0,3 -23,6 4 2 - - N 60
12.12.2018 13:00:00 -0,7 -20,3 13 7 - - NO 60
12.12.2018 12:00:00 -1,7 -22,0 13 7 - - NO 60
12.12.2018 11:00:00 -1,8 -22,3 9 5 - - ONO 60
12.12.2018 10:00:00 -4,2 -21,3 4 2 - - N 57
12.12.2018 09:00:00 -4,9 -21,0 4 2 - - N 36
12.12.2018 08:00:00 -6,1 -21,0 18 10 - - N 0
12.12.2018 07:00:00 -6,0 -20,4 18 10 - - NNO 0
12.12.2018 06:00:00 -6,0 -20,6 26 14 - - NNO 0
12.12.2018 05:00:00 -5,8 -21,0 26 14 - - NNO 0
12.12.2018 04:00:00 -5,8 -21,4 26 14 - - NNO 0
12.12.2018 03:00:00 -5,7 -21,0 24 13 - - NNO 0
12.12.2018 02:00:00 -5,3 -20,6 18 10 - - NO 0
12.12.2018 01:00:00 -5,1 -21,3 9 5 - - NO 0
12.12.2018 00:00:00 -4,8 -21,0 8 4 - - NO 0
11.12.2018 23:00:00 -4,8 -17,4 4 2 - - N 0
11.12.2018 22:00:00 -4,4 -17,0 4 2 - - SO 0
11.12.2018 21:00:00 -5,2 -10,9 22 12 - - ENE 0
11.12.2018 20:00:00 -5,0 -10,7 21 11 - - NE 0
11.12.2018 19:00:00 -3,9 -11,6 21 11 - - ENE 0
11.12.2018 18:00:00 -2,6 -12,5 26 14 - - ENE 0
11.12.2018 17:00:00 -1,7 -9,2 24 13 - - ENE 24
11.12.2018 16:00:00 -1,6 -9,3 11 6 - - NNO 60
11.12.2018 15:00:00 -0,6 -12,4 11 6 - - ONO 60
11.12.2018 14:00:00 -0,7 -17,2 9 5 - - ONO 60
11.12.2018 13:00:00 -0,4 -14,7 11 6 - - ONO 60
11.12.2018 12:00:00 -1,7 -15,7 18 10 - - NO 60
11.12.2018 11:00:00 -1,0 -15,9 18 10 - - N 60
11.12.2018 10:00:00 -0,7 -15,2 22 12 - - NNO 60
11.12.2018 09:00:00 -3,5 -15,8 24 13 - - NNO 36
11.12.2018 08:00:00 -3,6 -16,0 26 14 - - - 0
11.12.2018 07:00:00 -3,6 -15,2 28 15 - - N 0
11.12.2018 06:00:00 -3,7 -14,7 28 15 - - NNE 0
11.12.2018 05:00:00 -3,4 -15,0 26 14 - - N 0
11.12.2018 04:00:00 -3,2 -15,0 18 10 - - NNO 0
11.12.2018 03:00:00 -3,2 -14,9 4 2 - - N 0
11.12.2018 02:00:00 -3,2 -13,5 31 17 - - N 0
11.12.2018 01:00:00 -3,1 -14,1 29 16 - - NNO 0
11.12.2018 00:00:00 -3,4 -9,9 16 9 - - N 0
10.12.2018 23:00:00 -3,7 -10,7 24 13 - - NE 0
10.12.2018 22:00:00 -3,3 -11,0 11 6 - - - 0
10.12.2018 21:00:00 -2,4 -11,8 4 2 50 27 N 0
10.12.2018 20:00:00 -2,2 -11,4 4 2 - - N 0
10.12.2018 19:00:00 -1,9 -9,0 22 12 - - NNO 0
10.12.2018 18:00:00 -1,1 -6,9 50 27 76 41 N 0
10.12.2018 17:00:00 -0,2 -6,3 29 16 - - N 26
10.12.2018 16:00:00 0,4 -8,2 37 20 - - N 60
10.12.2018 15:00:00 0,5 -7,3 41 22 59 32 N 60
10.12.2018 14:00:00 1,0 -6,9 34 18 52 28 NNE 60
10.12.2018 13:00:00 0,9 -6,9 26 14 - - N 60
10.12.2018 12:00:00 0,6 -7,6 4 2 36 20 N 49
10.12.2018 11:00:00 0,8 -6,1 26 14 - - NO 60
10.12.2018 10:00:00 1,1 -6,8 26 14 - - NNO 60
10.12.2018 09:00:00 -1,2 -6,8 34 18 - - N 36
10.12.2018 08:00:00 -1,0 -8,2 42 23 59 32 NNE 0
10.12.2018 07:00:00 -1,3 -7,5 41 22 - - N 0
10.12.2018 06:00:00 -1,0 -8,0 37 20 - - NNO 0
10.12.2018 05:00:00 -1,1 -6,6 34 18 - - NNO 0
10.12.2018 04:00:00 -1,3 -3,2 29 16 - - NNO 0
10.12.2018 03:00:00 -1,1 -1,8 29 16 - - NNO 0
10.12.2018 02:00:00 -0,7 -1,4 28 15 - - NNO 0
10.12.2018 01:00:00 -1,0 -2,0 35 19 - - NNO 0
10.12.2018 00:00:00 -0,7 -1,0 31 17 51 28 NNO 0
09.12.2018 23:00:00 -0,7 -1,1 37 20 - - N 0
09.12.2018 22:00:00 0,4 0,4 41 22 - - NNO 0
09.12.2018 21:00:00 0,7 0,7 46 25 - - NNE 0
09.12.2018 20:00:00 0,9 0,9 39 21 55 30 NO 0
09.12.2018 19:00:00 0,8 0,8 28 15 - - ONO 0
09.12.2018 18:00:00 0,2 0,2 31 17 53 29 NO 0
09.12.2018 17:00:00 0,5 -0,3 42 23 65 35 NO 0
09.12.2018 16:00:00 1,1 1,1 44 24 - - NO 0
09.12.2018 15:00:00 0,7 0,7 35 19 - - ONO 1
09.12.2018 14:00:00 0,6 0,6 39 21 64 35 ONO 4
09.12.2018 13:00:00 2,3 -7,4 24 13 - - N 24
09.12.2018 12:00:00 2,2 -10,2 4 2 36 20 N 60
09.12.2018 11:00:00 1,4 -11,0 16 9 - - O 60
09.12.2018 10:00:00 -0,5 -4,5 34 18 - - O 60
09.12.2018 09:00:00 -1,2 -4,8 26 14 - - O 37
09.12.2018 08:00:00 -1,9 -6,1 35 19 - - ONO 0
09.12.2018 07:00:00 -1,5 -9,1 31 17 - - NO 0
09.12.2018 06:00:00 -1,1 -12,2 29 16 - - NO 0
09.12.2018 05:00:00 -1,1 -12,7 37 20 - - NNO 0
09.12.2018 04:00:00 -0,9 -13,0 41 22 - - NO 0
09.12.2018 03:00:00 -1,7 -11,5 41 22 - - NNO 0
09.12.2018 02:00:00 -2,1 -13,1 34 18 - - NNO 0
09.12.2018 01:00:00 -1,8 -12,4 35 19 - - N 0
09.12.2018 00:00:00 -2,5 -7,4 28 15 - - NNO 0
08.12.2018 23:00:00 -2,4 -7,2 37 20 - - N 0
08.12.2018 22:00:00 -2,1 -4,7 34 18 - - N 0
08.12.2018 21:00:00 -1,8 -3,7 34 18 - - N 0
08.12.2018 20:00:00 -1,7 -3,2 35 19 - - N 0
08.12.2018 19:00:00 -1,4 -2,5 44 24 - - N 0
08.12.2018 18:00:00 -1,2 -2,3 4 2 54 29 N 0
08.12.2018 17:00:00 -1,1 -1,3 34 18 50 27 N 24
08.12.2018 16:00:00 -0,7 -1,2 50 27 - - NNE 22
08.12.2018 15:00:00 -0,7 -2,0 37 20 57 31 N 2
08.12.2018 14:00:00 -0,9 -1,8 24 13 47 26 NO 47
08.12.2018 13:00:00 0,9 0,9 34 18 - - NNO 42
08.12.2018 12:00:00 0,6 0,6 41 22 57 31 NNO 4
08.12.2018 11:00:00 0,9 0,9 41 22 66 36 ONO 0
08.12.2018 10:00:00 1,2 1,2 29 16 - - ONO 0
08.12.2018 09:00:00 1,8 1,8 37 20 - - ONO 7
08.12.2018 08:00:00 2,0 2,0 48 26 67 36 ONO 0
08.12.2018 07:00:00 2,1 2,1 34 18 - - N 0
08.12.2018 06:00:00 1,6 1,6 4 2 46 25 N 0
08.12.2018 05:00:00 1,8 1,8 4 2 41 22 N 0
08.12.2018 04:00:00 2,3 2,3 4 2 - - N 0
08.12.2018 03:00:00 2,0 2,0 4 2 52 28 N 0
08.12.2018 02:00:00 1,8 1,8 15 8 38 20 - 0
08.12.2018 01:00:00 1,7 1,7 18 10 - - N 0
08.12.2018 00:00:00 1,7 1,7 4 2 43 23 N 0
07.12.2018 23:00:00 1,5 1,5 31 17 - - O 0
07.12.2018 22:00:00 1,2 1,2 22 12 - - O 0

tt = Temperatura
td = dewpoint
ff = velocità del vento
fx = gusts
dd = direzione del vento
sd = ore di luce

Stazioni seguenti

WeatherPro
AMSI
MeteoEarth